User: anonymous   Login
Location: Piedmont
(45.8748°N, 74.1254°W)
Time: 14:52:00
(UTC+00:00)
Language:

N. Korean satellite - Orbit

View from above orbital plane
View from above orbital plane
View from above satellite
View from above satellite

Ground track
Ground track

The orbit data is extracted from the following two-line orbital elements,

1 39026U 12072A   22018.90561879  .00010368  00000-0  32994-3 0  9998
2 39026  97.2594  11.9647 0032908 338.8004  21.1872 15.32233197505999
Epoch (UTC): 18 January 2022 21:44:05
Eccentricity: 0.0032908
inclination: 97.2594°
perigee height: 446 km
apogee height: 491 km
right ascension of ascending node: 11.9647°
argument of perigee: 338.8004°
revolutions per day: 15.32233197
mean anomaly at epoch: 21.1872°
orbit number at epoch: 50599

The dashed part of the orbit path shows where the satellite is in the earth's shadow,  

DLR